User: anonymous   Login
Location: Unspecified
(0.0000°N, 0.0000°E)
Time: 18:43:20
(UTC+00:00)
Language:

COMPASS 2 - Orbit

View from above orbital plane
View from above orbital plane
View from above satellite
View from above satellite

Ground track
Ground track

The orbit data is extracted from the following two-line orbital elements,

1 42777U 17036N   18351.11000476  .00001255  00000-0  57382-4 0  9993
2 42777  97.3811  47.7829 0013844 141.3291 218.8939 15.22309751 82337
Epoch (UTC): 17 December 2018 02:38:24
Eccentricity: 0.0013844
inclination: 97.3811°
perigee height: 489 km
apogee height: 508 km
right ascension of ascending node: 47.7829°
argument of perigee: 141.3291°
revolutions per day: 15.22309751
mean anomaly at epoch: 218.8939°
orbit number at epoch: 8233

The dashed part of the orbit path shows where the satellite is in the earth's shadow,  

DLR